Hourly Data Report for October 19, 2013

All times are specified in Local Standard Time (LST). Add 1 hour to adjust for Daylight Saving Time where and when it is observed.

FORT LIARD
NORTHWEST TERRITORIES

60°14'00.000" N
123°28'00.000" W
213.40 m
2201579
71497
WJL

Download Data

Hourly Data (October 2013)
Hourly Data Report for October 19, 2013
Temp Definition
°C
Dew Point Temp Definition
°C
Rel Hum Definition
%
Wind Dir Definition
10's deg

Wind Spd Definition
km/h
Visibility Definition
km
Stn Press Definition
kPa
Hmdx Definition


Wind Chill Definition


Weather Definition


TIME
00:00 13.2 1.6 45 26 19   98.28     LegendNANA
01:00 12.9 1.7 46 26 19   98.32     LegendNANA
02:00 12.6 1.4 46 26 17   98.41     LegendNANA
03:00 12.0 1.5 49 26 15   98.44     LegendNANA
04:00 11.7 1.1 48 26 11   98.51     LegendNANA
05:00 11.1 1.1 50 25 11   98.55     LegendNANA
06:00 10.4 1.0 52 24 13   98.60     LegendNANA
07:00 9.0 0.8 56 23 9   98.69     LegendNANA
08:00 8.0 0.9 61 20 11   98.76     LegendNANA
09:00 10.0 1.1 54 23 15   98.78     LegendNANA
10:00 11.7 1.0 48 24 15   98.81     LegendNANA
11:00 12.1 0.9 46 24 9   98.81     LegendNANA
12:00 12.3 0.8 45 24 13   98.81     LegendNANA
13:00 14.0 0.4 39 24 13   98.78     LegendNANA
14:00 14.6 0.4 38 23 20   98.77     LegendNANA
15:00 14.8 0.2 37 22 17   98.75     LegendNANA
16:00 14.0 -0.1 38 23 11   98.74     LegendNANA
17:00 13.5 0.1 40 25 6   98.70     LegendNANA
18:00 9.1 1.6 59   0   98.64     LegendNANA
19:00 9.1 1.9 61 22 4   98.58     LegendNANA
20:00 9.6 2.6 62 23 7   98.53     LegendNANA
21:00 10.7 3.3 60 25 9   98.49     LegendNANA
22:00 10.8 3.5 61 22 6   98.45     LegendNANA
23:00 9.6 3.8 67 21 2   98.39     LegendNANA

Notes on Data Quality.

Legend

  • E = Estimated
  • M = Missing
  • NA = Not Available
  • ‡ = Partner data that is not subject to review by the National Climate Archives
Date modified: